Regional Weather Roundup
Issued by NWS

Home | Current Version | Previous Version | Graphics & Text | Print | Product List | Glossary On
Versions: 1 2 3 4 5 6 7 8 9 10 11 12 13 14 15 16 17 18 19 20 21 22 23 24 25 26 27 28 29 30 31 32 33 34 35 36 37 38 39 40 41 42 43 44 45 46 47 48 49 50
840
ASUS45 KPSR 251310
RWRAZ

ARIZONA HOURLY REGIONAL WEATHER ROUNDUP
NATIONAL WEATHER SERVICE PHOENIX AZ
600 AM MST MON SEP 25 2017

NOTE: FAIR INDICATES FEW OR NO CLOUDS BELOW 12,000 FEET WITH NO
SIGNIFICANT WEATHER AND/OR OBSTRUCTIONS TO VISIBILITY.

AZZ001>003-036-251400-
NORTHWEST ARIZONA

CITY           SKY/WX    TMP DP  RH WIND       PRES   REMARKS
BULLHEAD CITY  CLEAR     70  36  28 N20G26    29.87R
KINGMAN        CLEAR     46  26  45 E8        29.98R
$$

AZZ004>008-015-016-018-251400-
NORTH CENTRAL ARIZONA

CITY           SKY/WX    TMP DP  RH WIND       PRES   REMARKS
GRAND CANYON   PTCLDY    21  13  71 CALM      30.07S
WILLIAMS       PTCLDY    28  16  59 S8        30.05S WCI  20
PRESCOTT       CLEAR     37  22  54 S9        30.00R WCI  30
FLAGSTAFF      PTCLDY    24  13  62 CALM      30.07R
PAYSON           N/A     50  10  20 N8        29.98R
PAGE           CLEAR     46  27  47 CALM      30.03R
$$

AZZ009>014-017-251400-
NORTHEAST ARIZONA

CITY           SKY/WX    TMP DP  RH WIND       PRES   REMARKS
WINSLOW        PTCLDY    33  13  43 W8        30.04R WCI  26
SAINT JOHNS    PTCLDY    32  14  47 CALM      30.02R
WINDOW ROCK    CLEAR     23  13  65 CALM      30.08R
SHOW LOW       CLEAR     34  21  60 CALM      30.05R
$$

AZZ540-542>544-546-548-251400-
GREATER PHOENIX AREA

CITY           SKY/WX    TMP DP  RH WIND       PRES   REMARKS
PHOENIX        PTCLDY    63  27  25 SE3       29.79R
BUCKEYE        CLEAR     55  19  24 N6        29.81R
GLENDALE       PTCLDY    61  27  27 CALM      29.81
LUKE AFB       CLEAR     59  27  30 CALM      29.79R
DEER VALLEY    CLEAR     58  17  20 CALM      29.79R
SCOTTSDALE     CLEAR     61  28  28 CALM      29.81R
MESA-FALCON    CLEAR     63  21  20 CALM      29.81
MESA-GATEWAY   CLEAR     54  18  24 E7        29.82R
CHANDLER       CLEAR     55  28  35 NE5       29.80
$$

AZZ539-553-251400-
SOUTHWEST MARICOPA COUNTY AND PINAL COUNTY

CITY           SKY/WX    TMP DP  RH WIND       PRES   REMARKS
CASA GRANDE    NOT AVBL
GILA BEND      FAIR      55  18  23 SE7       29.79R
$$

AZZ503-504-507>509-251400-
SOUTHEAST ARIZONA

CITY           SKY/WX    TMP DP  RH WIND       PRES   REMARKS
TUCSON         CLEAR     55  20  25 SE9       29.87R
DAVIS-MONTHAN  CLEAR     52  23  31 S6        29.85R
RYAN FIELD     CLEAR     48  19  32 MISG      29.87
NOGALES        CLEAR     46  30  53 CALM      29.91R
SIERRA VISTA   CLEAR     51  28  40 S6        29.94S
DOUGLAS        CLEAR     47  26  44 N6        29.92R
SAFFORD        CLEAR     49  21  33 E5        29.86R
$$

AZZ532-251400-
SOUTHWEST ARIZONA

CITY           SKY/WX    TMP DP  RH WIND       PRES   REMARKS
YUMA           CLEAR     62  31  31 CALM      29.79R
$$

CAZ041-043-047-048-061-525>527-560>570-251400-
SOUTHERN CALIFORNIA

CITY           SKY/WX    TMP DP  RH WIND       PRES   REMARKS
DOWNTOWN L.A.  CLEAR     61  42  49 CALM      29.83R
L.A. AIRPORT   PTCLDY    60  46  59 CALM      29.84R
SAN DIEGO      PTCLDY    63  39  41 CALM      29.84R
BURBANK        CLEAR     59  34  39 CALM      29.84R
ONTARIO        MOCLDY    60  32  34 CALM      29.85R
RIVERSIDE      CLEAR     57  39  51 E5        29.86R
PALM SPRINGS   CLEAR     70  23  17 W7        29.86S
EL CENTRO NAS  PTCLDY    56  24  29 W12       29.82S
IMPERIAL       CLEAR     56  33  42 W8        29.80R
BLYTHE         CLEAR     65  25  22 NW8       29.83R
NEEDLES        CLEAR     69  32  25 N13       29.88R
$$

NVZ020-UTZ003-251400-
SOUTHERN NEVADA-UTAH

CITY           SKY/WX    TMP DP  RH WIND       PRES   REMARKS
LAS VEGAS      PTCLDY    57  25  29 SW5       29.97S
SALT LAKE CITY PTCLDY    43  40  89 SE6       30.12R
$$

NMZ009-TXZ055-251400-
NEW MEXICO-WEST TEXAS

CITY           SKY/WX    TMP DP  RH WIND       PRES   REMARKS
ALBUQUERQUE    CLOUDY    52  22  30 NE6       29.99S
EL PASO        MOCLDY    69  49  48 S6        29.85R
$$


........................KEY........................
SKY/WX - SKY CONDITION/WEATHER
TMP    - TEMPERATURE IN FAHRENHEIT
DP     - DEW POINT IN FAHRENHEIT
RH     - RELATIVE HUMIDITY IN PERCENT
WIND   - DIRECTION AND SPEED IN MILES PER HOUR (MPH)
VRB    - VARIABLE WIND DIRECTION
PRES   - MEAN SEA LEVEL PRESSURE IN INCHES OF MERCURY
         F - FALLING PRESSURE   R - RISING PRESSURE
         S - STEADY PRESSURE
VSB    - VISIBILITY IN MILES
HX     - HEAT INDEX IN FAHRENHEIT
WCI    - WIND CHILL INDEX IN FAHRENHEIT
TC     - TEMPERATURE IN CELSIUS WHICH IS ALSO KNOWN AS
         TEMPERATURE IN CENTIGRADE
AFB    - AIR FORCE BASE
         LUKE AFB IS LUKE AIR FORCE BASE
         DAVIS-MONTHAN IS DAVIS-MONTHAN AIR FORCE BASE
NAS    - NAVAL AIR STATION
         EL CENTRO NAS IS EL CENTRO NAVAL AIR STATION
N/A    - NOT AVAILABLE





USA.gov is the U.S. government's official web portal to all federal, state and local government web resources and services.